Weather History for Valparaiso, IN

Change the Weather History Date:

Monday, September 3, 2012

  Actual Average Record
Temperature  
Mean Temperature 78 °F 68 °F  
Max Temperature 88 °F 78 °F 93 °F (2011)
Min Temperature 68 °F 58 °F 51 °F (2005)
Degree Days  
Heating Degree Days 0 1  
Month to date heating degree days 0 3  
Since 1 July heating degree days 6 20  
Cooling Degree Days 13 4  
Month to date cooling degree days 35 12  
Year to date cooling degree days 1008 648  
Growing Degree Days 28 (Base 50)    
Moisture  
Dew Point 69 °F    
Average Humidity 80    
Maximum Humidity 93    
Minimum Humidity 61    
Precipitation  
Precipitation 0.00 in 0.14 in 0.40 in (2011)
Month to date precipitation 0.94 0.42  
Year to date precipitation 19.73 25.96  
Sea Level Pressure  
Sea Level Pressure 29.89 in    
Wind  
Wind Speed 5 mph (NE)    
Max Wind Speed 10 mph    
Max Gust Speed 15 mph    
Visibility 8 miles    
Events      
T = Trace of Precipitation, MM = Missing Value Source: NWS Daily Summary

Daily Weather History Graph

Daily Weather History Graph

Search for Another Location

Airport:

Trip Planner

Search our weather history database for the weather conditions in past years. The results will help you decide how hot, cold, wet, or windy it might be!

Date:

Astronomy

Sep. 03, 2012 Rise Set
Actual Time 6:16 AM CDT 7:16 PM CDT
Civil Twilight 5:48 AM CDT 7:45 PM CDT
Nautical Twilight 5:14 AM CDT 8:18 PM CDT
Astronomical Twilight 4:39 AM CDT 8:53 PM CDT
Moon 8:32 PM CDT (9/3) 9:27 AM CDT (9/3)
Length of Visible Light 13h 56m
Length of Day
13h 00m
Waning Gibbous, 90% of the Moon is Illuminated
Sep 3
Waning Gibbous
Sep 8
Last Quarter
Sep 15
New
Sep 22
First Quarter
Sep 29
Full

Hourly Weather History & Observations

Time (CDT) Temp. Heat Index Dew Point Humidity Pressure Visibility Wind Dir Wind Speed Gust Speed Precip Events Conditions
12:53 AM 72.0 °F - 69.1 °F 91% 29.90 in 8.0 mi ENE 8.1 mph - N/A   Clear
1:53 AM 71.1 °F - 69.1 °F 93% 29.90 in 5.0 mi ENE 4.6 mph - N/A   Clear
2:53 AM 70.0 °F - 68.0 °F 93% 29.89 in 5.0 mi NE 5.8 mph - N/A   Clear
3:53 AM 70.0 °F - 68.0 °F 93% 29.89 in 5.0 mi ENE 5.8 mph - N/A   Clear
4:53 AM 69.1 °F - 66.9 °F 93% 29.89 in 5.0 mi ENE 4.6 mph - N/A   Clear
5:53 AM 69.1 °F - 66.0 °F 90% 29.91 in 6.0 mi NNE 3.5 mph - N/A   Clear
6:53 AM 69.1 °F - 66.0 °F 90% 29.90 in 5.0 mi ENE 6.9 mph - 0.01 in   Clear
7:53 AM 72.0 °F - 66.9 °F 84% 29.91 in 8.0 mi NE 5.8 mph - N/A   Clear
8:53 AM 75.0 °F - 69.1 °F 82% 29.92 in 10.0 mi ENE 6.9 mph - N/A   Clear
9:53 AM 79.0 °F - 70.0 °F 74% 29.91 in 10.0 mi NE 4.6 mph - N/A   Clear
10:53 AM 84.0 °F 89.6 °F 72.0 °F 67% 29.91 in 10.0 mi East 8.1 mph - N/A   Clear
11:53 AM 86.0 °F 92.2 °F 72.0 °F 63% 29.91 in 10.0 mi NNE 4.6 mph - N/A   Partly Cloudy
12:53 PM 86.0 °F 92.2 °F 72.0 °F 63% 29.90 in 10.0 mi NE 5.8 mph - N/A   Scattered Clouds
1:53 PM 86.0 °F 92.2 °F 72.0 °F 63% 29.89 in 10.0 mi NNE 8.1 mph - N/A   Partly Cloudy
2:53 PM 88.0 °F 95.6 °F 73.0 °F 61% 29.88 in 10.0 mi North 8.1 mph - N/A   Partly Cloudy
3:53 PM 86.0 °F 92.2 °F 72.0 °F 63% 29.87 in 10.0 mi North 6.9 mph - N/A   Clear
4:53 PM 84.9 °F 90.1 °F 71.1 °F 63% 29.86 in 10.0 mi North 5.8 mph - N/A   Clear
5:53 PM 82.0 °F 85.9 °F 70.0 °F 67% 29.87 in 10.0 mi North 6.9 mph - N/A   Clear
6:53 PM 77.0 °F - 70.0 °F 79% 29.88 in 10.0 mi Calm Calm - N/A   Clear
7:53 PM 73.9 °F - 70.0 °F 87% 29.89 in 10.0 mi NNW 3.5 mph - N/A   Clear
8:53 PM 73.0 °F - 69.1 °F 87% 29.91 in 10.0 mi Calm Calm - N/A   Clear
9:53 PM 73.0 °F - 68.0 °F 84% 29.91 in 10.0 mi NNE 4.6 mph - N/A   Clear
10:53 PM 70.0 °F - 68.0 °F 93% 29.88 in 7.0 mi Calm Calm - N/A   Clear
11:53 PM 70.0 °F - 68.0 °F 93% 29.87 in 6.0 mi Calm Calm - N/A   Clear